Home > Weather > Okayama > Past weeks

Flag for Japan Weather for the Past 2 Weeks in Okayama, Japan

Now
57 °F

Sprinkles. Fog.


Feels Like: 57 °F
Forecast: 42 / 59 °F
Wind: 3 mph from East

Location: Okayama Airport

Current Time: Feb 13, 2016 at 6:36:27 PM

Latest Report: Feb 13, 2016 at 6:00 PM


Visibility: 1 mi

Pressure: 29.86 "Hg

Humidity: 94%

Dew point: 55 °F

Location of OkayamaLocation

Historic Weather in Okayama — Graph

°F

Okayama Temperature Yesterday

Maximum temperature yesterday: 57 °F (at 4:00 PM)
Minimum temperature yesterday: 37 °F (at 8:00 AM)
Average temperature yesterday: 51 °F

High & Low Weather Summary for the Past Weeks

 TemperatureHumidityPressure
High57 °F (Feb 12, 4:00 PM)100% (Jan 29, 5:00 PM)30.42 "Hg (Jan 29, 5:00 PM)
Low28 °F (Feb 8, 7:00 AM)29% (Feb 9, 3:00 PM)29.86 "Hg (Feb 9, 7:00 AM)
Average42 °F65%30.12 "Hg
* Reported Jan 29 5:00 PM — Feb 13 5:00 PM, Okayama, Weather by CustomWeather, © 2016

Note: Actual official high and low records may vary slightly from our data, if they occured in-between our weather recording intervals... More about our weather records

Advertising

Okayama Weather History for the Previous 24 Hours

 ConditionsComfort  
Time TempWeatherWind HumidityBarometerVisibility
5:00 PM
Sat, Feb 13
57 °FSprinkles. Fog.3 mph100%29.89 "Hg1 mi
4:00 PM57 °FRain showers. Fog.7 mph100%29.89 "Hg1 mi
3:00 PM57 °FRain showers. Fog.8 mph94%29.89 "Hg3 mi
2:02 PM57 °FRain showers. Fog.6 mph94%29.95 "Hg1 mi
2:00 PM57 °FRain showers. Fog.6 mph94%29.95 "Hg1 mi
1:00 PM57 °FSprinkles. Fog.7 mph94%29.95 "Hg3 mi
12:00 PM55 °FSprinkles. Fog.9 mph94%30.01 "Hg3 mi
11:00 AM55 °FScattered showers. Fog.10 mph94%30.04 "Hg3 mi
10:00 AM54 °FFog.9 mph94%30.07 "Hg3 mi
9:00 AM54 °FSprinkles. Broken clouds.7 mph94%30.07 "Hg4 mi
8:00 AM52 °FSprinkles. Broken clouds.9 mph100%30.07 "Hg4 mi
7:00 AM52 °FFog.7 mph100%30.07 "Hg2 mi
9:00 PM
Fri, Feb 12
52 °FPassing clouds.7 mph77%30.21 "HgN/A
8:00 PM52 °FPassing clouds.6 mph77%30.21 "HgN/A
7:00 PM52 °FPassing clouds.6 mph77%30.21 "HgN/A
6:00 PM52 °FPartly cloudy.3 mph72%30.21 "HgN/A
Weather by CustomWeather, © 2016

See weather overviewHow to use our weather pages